sat.trackr.live / text

‹ back to catalog

SENTINEL-6B

NORAD 66514 · 2025-264A

PAYLOAD ACTIVE UNKNOWN

§ Identity

Operator
Country
ESA
Launch date
2025-11-17
Launch site
AFWTR
Launch vehicle
Mass (kg)
RCS (m²)

Purposes: earth_obs

External: N2YO · Heavens-Above · Gunter

§ Orbital elements

Epoch: 2026-05-25T03:09:21.791808Z

Period
112.42 min
Inclination
66.0392°
Eccentricity
0.0008054
Mean motion
12.80929096 rev/d
Perigee alt
1,331.5 km
Apogee alt
1,344.0 km
Semi-major
7,715.9 km
B*
5.4968e-5
RAAN
183.0660°
Arg perigee
269.3915°
Mean anomaly
90.6177°
Rev number
2,421

§ Raw data

SENTINEL-6B1 66514U 25264A   26145.13150222 -.00000048  00000+0  54968-4 0  99932 66514  66.0392 183.0660 0008054 269.3915  90.6177 12.80929096 24211

JSON: /api/v1/satellites/66514 · /tle

For live sub-satellite position, see the globe view (requires WebGL).

§ Visibility from observer

Set your observer location to see the next 7 days of passes ≥ 10°. The values pass through the URL so the page stays shareable.

No JS? Fill the form by hand. The geolocation button needs JavaScript.